LATEST WEATHER OBSERVATIONS RECORDED AT FUA'AMOTU AIRPORT
DATE TIME CLOUD WIND KT TEMP
(C)
DewPoint
(C)
RH(%) WEATHER MSL PRESS.
(MB)
22.11.2019 04:00PM CLOUDY W 11 26 21.4 75.82452 NIL 1007.1
22.11.2019 03:00PM CLOUDY W 10 26 21.1 74.44277 NIL 1007.3
22.11.2019 02:00PM CLOUDY W 15 27.4 21.9 71.99958 NIL 1007.7
22.11.2019 01:00PM CLOUDY W 13 28.6 22.8 70.91616 NIL 1008.2
22.11.2019 12:00PM PARTLY CLOUDY W 12 27.9 22.7 73.41428 NIL 1008.7
22.11.2019 11:00AM PARTLY CLOUDY W 13 28 22.6 72.54662 NIL 1009.1
22.11.2019 10:00AM PARTLY CLOUDY W 10 27.5 22.4 73.79221 NIL 1009.2
22.11.2019 09:00AM PARTLY CLOUDY NW 7 26.8 22.2 75.95269 NIL 1009.1
22.11.2019 08:00AM PARTLY CLOUDY NW 5 25.4 23.5 89.25724 NIL 1009.1
22.11.2019 07:00AM PARTLY CLOUDY NE 3 22.8 22.2 96.42265 NIL 1008.9
22.11.2019 06:00AM FINE  VARIABLE 2 21.4 20.9 96.97902 NIL 1008.4
22.11.2019 05:00AM FINE  N 3 22.5 22.1 97.597 NIL 1008.1
22.11.2019 04:00AM FINE  N 3 23.5 22.9 96.4415 NIL 1007.9
22.11.2019 03:00AM PARTLY CLOUDY NE 4 23.2 22.6 96.43344 NIL 1008.4
22.11.2019 02:00AM PARTLY CLOUDY VARIABLE 2 23.1 22.7 97.60793 NIL 1008.7
22.11.2019 01:00AM PARTLY CLOUDY NE 3 24.1 22.9 93.0251 NIL 1009.4
21.11.2019 10:00PM FINE  NE 3 24.2 22.4 89.70726 NIL 1010.1
21.11.2019 09:00PM FINE  NE 3 24.8 22.9 89.21058 NIL 1010.2
21.11.2019 08:00PM FINE  NE 3 25.2 23.5 90.32443 NIL 1010
21.11.2019 07:00PM FINE  NE 3 25.2 23.5 90.32443 NIL 1009.8
21.11.2019 06:00PM FINE  NE 6 27.3 22.5 75.11533 NIL 1009.7
21.11.2019 05:00PM FINE  NE 6 27.6 22.9 75.62097 NIL 1009.3
21.11.2019 04:00PM FINE  E 7 28.1 22.9 73.44881 NIL 1009.5
21.11.2019 03:00PM FINE  NE 6 28.5 23.1 72.63509 NIL 1009.6